Location: Blue Sky Observatory
(43.1153°N, 70.9036°W)
Time: 20:22:57
(UTC-04:00)

Amateur Radio Satellites - All Passes

Search period start: 22 March 2017 19:52
Search period end: 23 March 2017 19:52
Location: Blue Sky Observatory, 43.1153°N, 70.9036°W

Satellite Date Start Highest point End Downlink Frequencies (MHz)
Time Altitude Azimuth
STRAND 1 22 Mar 20:00:41 20:05:45 59° 101° (E) 20:10:46 437.568
M-CUBED/EXP-1 PRIME 22 Mar 20:01:40 20:05:49 35° 296° (WNW) 20:10:03 437.505
HO-68 22 Mar 20:03:10 20:10:04 51° 260° (W) 20:17:02 435.675
ZACube-1 22 Mar 20:05:37 20:09:52 39° 71° (ENE) 20:14:04 437.345
Oscar 11 22 Mar 20:07:08 20:10:55 30° 69° (ENE) 20:14:41 .
XW-2A 22 Mar 20:20:34 20:22:24 14° 268° (W) 20:24:15 145.665 - 145.685
AO-73 22 Mar 20:36:23 20:40:56 74° 75° (ENE) 20:45:27 145.935
YUBILEINY 22 Mar 20:41:16 20:49:08 40° 274° (W) 20:56:59 435.215
AAUSAT CUBESAT 2 22 Mar 20:43:06 20:46:59 40° 262° (W) 20:50:52 437.432
CUTE 1.7 + AOD 2 22 Mar 20:45:30 20:47:45 14° 270° (W) 20:49:59 437.475
SEEDS 22 Mar 20:46:16 20:49:20 20° 267° (W) 20:52:24 437.485
UWE-3 22 Mar 20:50:33 20:55:00 44° 261° (W) 20:59:28 435.000/436.395/437.385
DELFI C3 22 Mar 21:07:30 21:11:10 39° 72° (ENE) 21:14:52 145.870
CUBEBUG 2 22 Mar 21:16:26 21:19:32 17° 269° (W) 21:22:38 437.445
PCSat 22 Mar 21:30:13 21:33:26 16° 256° (WSW) 21:36:39 145.827
ISS 22 Mar 21:36:01 21:38:04 16° 132° (SE) 21:40:08 437.550
STRAND 1 22 Mar 21:40:56 21:44:28 19° 299° (WNW) 21:47:58 437.568
ZACube-1 22 Mar 21:42:42 21:46:14 22° 267° (W) 21:49:46 437.345
Oscar 11 22 Mar 21:43:28 21:47:02 25° 265° (W) 21:50:37 .
RS-15 22 Mar 21:52:47 22:05:06 66° 49° (NE) 22:16:51 29.354- 29.394
Tancredo 1 22 Mar 21:54:44 21:57:25 25° 137° (SE) 22:00:08 437.200
PRISM 22 Mar 21:57:13 22:01:05 37° 98° (E) 22:04:56 437.425
AO-85 22 Mar 22:11:10 22:15:36 74° 122° (ESE) 22:19:45 145.980
AO-73 22 Mar 22:16:11 22:17:38 11° 271° (W) 22:19:05 145.935
LO-87 22 Mar 22:28:17 22:31:38 39° 72° (ENE) 22:35:01 145.935 - 145.965
DELFI C3 22 Mar 22:43:45 22:46:09 16° 268° (W) 22:48:33 145.870
FO-29 22 Mar 22:48:33 22:54:23 40° 95° (E) 22:59:35 435.910
TIGRISAT 22 Mar 22:51:45 22:56:14 69° 102° (ESE) 23:00:33 435.000
SPROUT 22 Mar 22:59:19 23:01:37 14° 62° (ENE) 23:03:57 437.525
UNISAT 6 22 Mar 23:00:33 23:05:03 88° 286° (WNW) 23:09:26 437.425
ISS 22 Mar 23:10:57 23:14:12 68° 329° (NNW) 23:17:29 437.550
VELOX 1 22 Mar 23:16:41 23:20:17 25° 67° (ENE) 23:23:56 145.980
POLYITAN 1 22 Mar 23:17:43 23:18:52 11° 89° (E) 23:20:01 437.675
SO-50 22 Mar 23:20:09 23:23:29 20° 40° (NE) 23:26:47 436.795
ESTCUBE 1 22 Mar 23:20:40 23:25:09 86° 75° (ENE) 23:29:39 437.505/2401.250
QB50P2 22 Mar 23:21:16 23:23:22 13° 90° (E) 23:25:27 145.880/145.840
AIST 2D 22 Mar 23:23:29 23:26:08 20° 94° (E) 23:28:45 435.315
Tancredo 1 22 Mar 23:30:23 23:33:26 43° 334° (NNW) 23:36:32 437.200
PRISM 22 Mar 23:33:05 23:36:07 20° 295° (WNW) 23:39:09 437.425
DUCHIFAT 1 22 Mar 23:39:44 23:42:25 16° 92° (E) 23:45:05 145.980
50 SAT 22 Mar 23:47:08 23:50:07 27° 70° (ENE) 23:53:06 437.505
AO-85 22 Mar 23:53:47 23:56:25 16° 320° (NW) 23:58:59 145.980
BEESAT 3 22 Mar 23:54:04 23:57:59 86° 123° (ESE) 00:01:59 437.485
UKube-1 22 Mar 23:57:30 00:00:45 21° 65° (ENE) 00:04:00 .
BEESAT 2 23 Mar 00:00:13 00:03:54 39° 117° (ESE) 00:07:38 435.950
LO-87 23 Mar 00:03:29 00:05:17 13° 269° (W) 00:07:06 145.935 - 145.965
RS-15 23 Mar 00:06:01 00:17:00 42° 253° (WSW) 00:27:34 29.354- 29.394
BUGSAT 1 23 Mar 00:14:09 00:16:08 13° 90° (E) 00:18:05 437.445
NANOSAT C BR1 23 Mar 00:22:19 00:26:28 53° 100° (E) 00:30:35 145.865
EO-79 23 Mar 00:24:03 00:28:17 61° 101° (E) 00:32:28 145.935-145.965
TIGRISAT 23 Mar 00:30:14 00:32:17 13° 300° (WNW) 00:34:20 435.000
SPROUT 23 Mar 00:32:49 00:37:03 59° 260° (W) 00:41:20 437.525
FO-29 23 Mar 00:33:48 00:39:19 32° 297° (WNW) 00:44:17 435.910
DX 1 23 Mar 00:43:17 00:47:38 89° 69° (ENE) 00:52:01 434.975-435.025
ISS 23 Mar 00:48:31 00:51:07 21° 349° (NNW) 00:53:44 437.550
POLYITAN 1 23 Mar 00:50:53 00:55:07 67° 286° (WNW) 00:59:17 437.675
VELOX 1 23 Mar 00:52:41 00:56:37 31° 263° (W) 01:00:35 145.980
QB50P2 23 Mar 00:55:19 00:59:30 55° 287° (WNW) 01:03:38 145.880/145.840
AIST 2D 23 Mar 00:56:27 00:59:20 24° 290° (WNW) 01:02:10 435.315
Oscar 19 23 Mar 00:58:54 01:01:35 14° 90° (E) 01:04:15 437.125/150
SO-50 23 Mar 00:59:53 01:04:22 64° 239° (WSW) 01:08:47 436.795
Tancredo 1 23 Mar 01:07:51 01:10:11 18° 353° (N) 01:12:33 437.200
DUCHIFAT 1 23 Mar 01:14:17 01:18:19 44° 288° (WNW) 01:22:19 145.980
50 SAT 23 Mar 01:20:53 01:23:12 17° 266° (W) 01:25:32 437.505
UKube-1 23 Mar 01:32:32 01:36:32 37° 262° (W) 01:40:34 .
BEESAT 3 23 Mar 01:34:06 01:36:09 14° 322° (NW) 01:38:14 437.485
BEESAT 23 Mar 01:37:01 01:40:30 21° 63° (ENE) 01:44:00 436.000
BEESAT 2 23 Mar 01:38:35 01:41:48 23° 315° (NW) 01:45:04 435.950
BUGSAT 1 23 Mar 01:47:42 01:51:51 56° 287° (WNW) 01:55:55 437.445
ITUPSAT 1 23 Mar 01:49:47 01:53:45 26° 65° (ENE) 01:57:42 437.325
NANOSAT C BR1 23 Mar 01:59:17 02:01:44 15° 297° (WNW) 02:04:11 145.865
EO-79 23 Mar 02:01:25 02:03:32 14° 298° (WNW) 02:05:39 145.935-145.965
O/OREOS (USA 219) 23 Mar 02:11:39 02:14:13 15° 50° (NE) 02:16:48 437.305
Gurwin Techsat 1B 23 Mar 02:16:55 02:22:00 43° 98° (E) 02:27:02 435.225
ISS 23 Mar 02:25:54 02:28:25 20° 9° (N) 02:30:57 437.550
MOZHAYETS 4 23 Mar 02:30:51 02:34:40 26° 67° (ENE) 02:38:28
Oscar 19 23 Mar 02:36:16 02:41:25 73° 287° (WNW) 02:46:34 437.125/150
ITAMSAT 1 23 Mar 02:38:00 02:39:05 11° 87° (E) 02:40:10 435.822/435.867
Tancredo 1 23 Mar 02:44:34 02:47:09 22° 14° (NNE) 02:49:45 437.200
BEESAT 23 Mar 03:13:19 03:17:56 48° 260° (W) 03:22:35 436.000
CUBESAT XI-V 23 Mar 03:13:49 03:15:51 13° 61° (ENE) 03:17:53 437.345
AO-7 23 Mar 03:14:54 03:21:34 26° 94° (E) 03:28:12 .
ITUPSAT 1 23 Mar 03:26:59 03:31:24 36° 262° (W) 03:35:51 437.325
STARS 23 Mar 03:32:44 03:34:37 13° 60° (ENE) 03:36:28 437.465
O/OREOS (USA 219) 23 Mar 03:49:35 03:54:12 75° 249° (WSW) 03:58:46 437.305
Gurwin Techsat 1B 23 Mar 03:57:21 04:01:42 26° 296° (WNW) 04:06:03 435.225
ISS 23 Mar 04:02:11 04:05:26 52° 28° (NNE) 04:08:41 437.550
MOZHAYETS 4 23 Mar 04:07:31 04:11:41 33° 264° (W) 04:15:52
ITAMSAT 1 23 Mar 04:14:02 04:19:17 88° 105° (ESE) 04:24:28 435.822/435.867
KKS-1 23 Mar 04:18:09 04:22:36 77° 73° (ENE) 04:27:06 437.445
Oscar 19 23 Mar 04:18:51 04:19:49 11° 304° (NW) 04:20:49 437.125/150
Tancredo 1 23 Mar 04:20:28 04:23:41 82° 32° (NNE) 04:26:55 437.200
CUBESAT XI-V 23 Mar 04:48:01 04:52:37 75° 259° (W) 04:57:13 437.345
AO-85 23 Mar 05:02:57 05:04:19 11° 36° (NE) 05:05:40 145.980
STARS 23 Mar 05:05:56 05:10:20 74° 257° (WSW) 05:14:48 437.465
AO-7 23 Mar 05:06:45 05:14:59 71° 293° (WNW) 05:23:12 .
M-CUBED/EXP-1 PRIME 23 Mar 05:14:39 05:17:52 31° 63° (ENE) 05:21:22 437.505
DOVE 4 23 Mar 05:24:34 05:27:06 13° 87° (E) 05:29:37 437.250
CUTE-I 23 Mar 05:37:29 05:38:34 11° 87° (E) 05:39:39 437.470
ISS 23 Mar 05:39:06 05:41:41 21° 225° (SW) 05:44:16 437.550
STRAND 1 23 Mar 05:41:41 05:44:04 13° 58° (ENE) 05:46:29 437.568
XW-2F 23 Mar 05:49:41 05:50:35 11° 90° (E) 05:51:27 145.980 - 146.000
ITAMSAT 1 23 Mar 05:55:28 05:58:00 14° 303° (WNW) 06:00:30 435.822/435.867
Tancredo 1 23 Mar 05:57:57 05:59:25 13° 229° (SW) 06:00:53 437.200
KKS-1 23 Mar 05:58:54 05:59:42 10° 271° (W) 06:00:29 437.445
XW-2D 23 Mar 06:11:15 06:14:11 21° 94° (E) 06:17:05 145.860 - 145.880
XW-2B 23 Mar 06:16:57 06:20:02 24° 95° (E) 06:23:06 145.730 - 145.750
NUDT-PHONESAT 23 Mar 06:25:17 06:28:20 24° 95° (E) 06:31:21 437.300
XW-2C 23 Mar 06:26:43 06:30:07 31° 97° (E) 06:33:28 145.795 - 145.815
KAITUO 1B 23 Mar 06:27:19 06:30:28 25° 96° (E) 06:33:34 145.475/437.950
BEESAT 3 23 Mar 06:34:28 06:35:36 11° 35° (NE) 06:36:44 437.485
AO-85 23 Mar 06:41:25 06:45:21 80° 56° (NE) 06:49:23 145.980
M-CUBED/EXP-1 PRIME 23 Mar 06:49:53 06:52:28 18° 263° (W) 06:55:11 437.505
DOVE 4 23 Mar 07:00:02 07:05:22 82° 284° (WNW) 07:10:38 437.250
AO-7 23 Mar 07:01:15 07:06:21 18° 314° (NW) 07:11:26 .
CUTE-I 23 Mar 07:13:59 07:19:23 85° 102° (ESE) 07:24:44 437.470
LilacSat-2 23 Mar 07:15:28 07:19:12 58° 285° (WNW) 07:22:53 437.200
STRAND 1 23 Mar 07:17:21 07:22:30 88° 251° (WSW) 07:27:42 437.568
XW-2F 23 Mar 07:21:24 07:25:03 53° 286° (WNW) 07:28:41 145.980 - 146.000
HO-68 23 Mar 07:29:50 07:36:03 31° 95° (E) 07:42:11 435.675
XW-2A 23 Mar 07:39:56 07:43:01 31° 97° (E) 07:46:03 145.665 - 145.685
XW-2D 23 Mar 07:45:11 07:48:21 26° 291° (WNW) 07:51:31 145.860 - 145.880
YUBILEINY 23 Mar 07:46:05 07:54:25 52° 89° (E) 08:02:46 435.215
XW-2B 23 Mar 07:51:07 07:54:10 24° 291° (WNW) 07:57:11 145.730 - 145.750
NO-84 23 Mar 07:54:08 07:56:39 28° 133° (SE) 07:59:10 435.350 FM
NUDT-PHONESAT 23 Mar 07:59:14 08:02:11 23° 291° (WNW) 08:05:05 437.300
XW-2C 23 Mar 08:01:27 08:04:05 18° 293° (WNW) 08:06:43 145.795 - 145.815
KAITUO 1B 23 Mar 08:01:29 08:04:22 22° 292° (WNW) 08:07:13 145.475/437.950
BEESAT 3 23 Mar 08:09:58 08:14:00 67° 55° (NE) 08:17:58 437.485
BEESAT 2 23 Mar 08:16:51 08:20:35 34° 49° (NE) 08:24:17 435.950
AAUSAT CUBESAT 2 23 Mar 08:24:10 08:27:43 27° 95° (E) 08:31:15 437.432
AO-73 23 Mar 08:25:29 08:27:15 12° 89° (E) 08:29:00 145.935
CUTE 1.7 + AOD 2 23 Mar 08:26:49 08:31:03 88° 279° (W) 08:35:16 437.475
UNISAT 6 23 Mar 08:26:50 08:28:13 11° 59° (ENE) 08:29:36 437.425
SEEDS 23 Mar 08:27:31 08:31:41 61° 101° (E) 08:35:49 437.485
UWE-3 23 Mar 08:39:23 08:43:22 34° 96° (E) 08:47:15 435.000/436.395/437.385
DOVE 4 23 Mar 08:40:03 08:42:10 12° 302° (WNW) 08:44:18 437.250
PRISM 23 Mar 08:47:26 08:50:59 30° 69° (ENE) 08:54:34 437.425
CUTE-I 23 Mar 08:55:50 08:58:42 15° 302° (WNW) 09:01:33 437.470
FO-29 23 Mar 09:00:34 09:06:46 27° 60° (ENE) 09:12:43 435.910
STRAND 1 23 Mar 09:01:17 09:02:23 11° 273° (W) 09:03:29 437.568
CUBEBUG 2 23 Mar 09:04:29 09:08:59 77° 284° (WNW) 09:13:18 437.445
XW-2A 23 Mar 09:13:30 09:15:31 15° 294° (WNW) 09:17:32 145.665 - 145.685
HO-68 23 Mar 09:17:06 09:24:02 54° 293° (WNW) 09:30:56 435.675
Oscar 11 23 Mar 09:28:38 09:32:52 54° 100° (E) 09:37:04 .
ZACube-1 23 Mar 09:28:52 09:33:10 70° 102° (ESE) 09:37:20 437.345
NO-84 23 Mar 09:31:43 09:34:10 25° 331° (NNW) 09:36:41 435.350 FM
YUBILEINY 23 Mar 09:43:35 09:51:29 37° 290° (WNW) 09:59:25 435.215
BEESAT 3 23 Mar 09:49:32 09:51:02 12° 252° (WSW) 09:52:32 437.485
TIGRISAT 23 Mar 09:50:32 09:55:12 68° 74° (ENE) 09:59:52 435.000
BEESAT 2 23 Mar 09:54:52 09:58:12 25° 246° (WSW) 10:01:30 435.950
UNISAT 6 23 Mar 09:59:29 10:04:11 89° 74° (ENE) 10:08:54 437.425
AAUSAT CUBESAT 2 23 Mar 09:59:39 10:03:06 26° 292° (WNW) 10:06:33 437.432
AO-73 23 Mar 09:59:42 10:03:54 58° 286° (WNW) 10:07:59 145.935
SEEDS 23 Mar 10:04:56 10:06:51 13° 297° (WNW) 10:08:48 437.485
POLYITAN 1 23 Mar 10:11:51 10:12:55 11° 60° (ENE) 10:13:59 437.675
QB50P2 23 Mar 10:15:21 10:17:15 13° 61° (ENE) 10:19:09 145.880/145.840
UWE-3 23 Mar 10:16:13 10:19:37 23° 294° (WNW) 10:22:58 435.000/436.395/437.385
DELFI C3 23 Mar 10:17:52 10:21:49 58° 101° (E) 10:25:44 145.870
PRISM 23 Mar 10:23:04 10:26:17 22° 265° (W) 10:29:32 437.425
PCSat 23 Mar 10:27:38 10:32:54 56° 115° (ESE) 10:38:13 145.827
DUCHIFAT 1 23 Mar 10:32:53 10:35:19 15° 63° (ENE) 10:37:44 145.980
FO-29 23 Mar 10:43:18 10:51:10 73° 257° (WSW) 10:58:42 435.910
BUGSAT 1 23 Mar 11:05:32 11:07:03 12° 61° (ENE) 11:08:35 437.445
Oscar 11 23 Mar 11:06:03 11:08:33 15° 297° (WNW) 11:11:04 .
ZACube-1 23 Mar 11:07:14 11:08:49 12° 299° (WNW) 11:10:25 437.345
HO-68 23 Mar 11:08:06 11:10:11 11° 314° (NW) 11:12:16 435.675
ESTCUBE 1 23 Mar 11:13:10 11:16:05 17° 92° (E) 11:18:59 437.505/2401.250
NANOSAT C BR1 23 Mar 11:14:56 11:18:59 44° 71° (ENE) 11:23:03 145.865
EO-79 23 Mar 11:16:58 11:21:05 50° 72° (ENE) 11:25:15 145.935-145.965
LO-87 23 Mar 11:27:30 11:31:00 43° 99° (E) 11:34:29 145.935 - 145.965
TIGRISAT 23 Mar 11:30:04 11:32:19 13° 271° (W) 11:34:35 435.000
AIST 2D 23 Mar 11:30:50 11:34:21 59° 259° (W) 11:37:52 435.315
POLYITAN 1 23 Mar 11:43:45 11:48:02 82° 258° (WSW) 11:52:22 437.675
QB50P2 23 Mar 11:48:14 11:52:29 67° 259° (WSW) 11:56:47 145.880/145.840
DELFI C3 23 Mar 11:54:25 11:56:07 12° 297° (WNW) 11:57:48 145.870
Gurwin Techsat 1B 23 Mar 12:03:28 12:05:06 11° 56° (NE) 12:06:46 435.225
DUCHIFAT 1 23 Mar 12:06:22 12:10:32 55° 260° (W) 12:14:44 145.980
PCSat 23 Mar 12:12:08 12:16:38 26° 314° (NW) 12:21:10 145.827
Oscar 19 23 Mar 12:16:11 12:20:13 24° 64° (ENE) 12:24:15 437.125/150
RS-15 23 Mar 12:17:53 12:28:10 36° 105° (ESE) 12:38:42 29.354- 29.394
SPROUT 23 Mar 12:18:07 12:21:26 21° 94° (E) 12:24:43 437.525
AO-7 23 Mar 12:30:58 12:31:49 10° 37° (NE) 12:32:39 .
DX 1 23 Mar 12:31:53 12:34:16 14° 91° (E) 12:36:37 434.975-435.025
FO-29 23 Mar 12:33:22 12:37:10 14° 275° (W) 12:40:56 435.910
BUGSAT 1 23 Mar 12:37:35 12:41:48 73° 258° (WSW) 12:46:05 437.445
VELOX 1 23 Mar 12:41:03 12:45:19 43° 99° (E) 12:49:34 145.980
50 SAT 23 Mar 12:43:10 12:46:10 26° 97° (E) 12:49:08 437.505
ESTCUBE 1 23 Mar 12:48:48 12:53:09 49° 288° (WNW) 12:57:29 437.505/2401.250
NO-84 23 Mar 12:50:01 12:51:21 12° 15° (NNE) 12:52:42 435.350 FM
NANOSAT C BR1 23 Mar 12:52:06 12:54:54 17° 268° (W) 12:57:43 145.865
EO-79 23 Mar 12:54:40 12:57:09 15° 269° (W) 12:59:37 145.935-145.965
LO-87 23 Mar 13:02:12 13:04:04 14° 295° (WNW) 13:05:57 145.935 - 145.965
UKube-1 23 Mar 13:18:21 13:22:13 31° 97° (E) 13:26:04 .
Gurwin Techsat 1B 23 Mar 13:38:51 13:44:09 76° 73° (ENE) 13:49:29 435.225
SPROUT 23 Mar 13:53:31 13:57:25 35° 290° (WNW) 14:01:19 437.525
Oscar 19 23 Mar 13:54:23 13:59:15 45° 261° (W) 14:04:11 437.125/150
ITAMSAT 1 23 Mar 13:55:19 13:59:08 21° 62° (ENE) 14:02:58 435.822/435.867
DX 1 23 Mar 14:06:28 14:10:47 56° 288° (WNW) 14:15:04 434.975-435.025
AO-7 23 Mar 14:14:44 14:22:20 42° 60° (ENE) 14:29:56 .
50 SAT 23 Mar 14:16:31 14:19:04 19° 292° (WNW) 14:21:37 437.505
VELOX 1 23 Mar 14:18:14 14:21:28 20° 296° (WNW) 14:24:42 145.980
NO-84 23 Mar 14:26:29 14:29:33 41° 34° (NE) 14:32:53 435.350 FM
RS-15 23 Mar 14:27:38 14:39:42 74° 308° (NW) 14:52:09 29.354- 29.394
UKube-1 23 Mar 14:54:34 14:58:07 25° 294° (WNW) 15:01:40 .
BEESAT 23 Mar 15:12:17 15:16:45 38° 98° (E) 15:21:10 436.000
SO-50 23 Mar 15:15:00 15:19:08 32° 115° (ESE) 15:23:13 436.795
Gurwin Techsat 1B 23 Mar 15:21:55 15:24:40 14° 271° (W) 15:27:25 435.225
ITUPSAT 1 23 Mar 15:25:56 15:30:36 51° 100° (E) 15:35:12 437.325
ITAMSAT 1 23 Mar 15:33:03 15:38:11 56° 259° (W) 15:43:21 435.822/435.867
MOZHAYETS 4 23 Mar 16:00:53 16:05:21 51° 100° (E) 16:09:46
NO-84 23 Mar 16:04:17 16:07:00 23° 229° (SW) 16:09:56 435.350 FM
AO-7 23 Mar 16:06:57 16:14:57 49° 259° (W) 16:22:58 .
KKS-1 23 Mar 16:09:41 16:11:57 14° 90° (E) 16:14:14 437.445
O/OREOS (USA 219) 23 Mar 16:27:15 16:28:22 11° 97° (E) 16:29:30 437.305
DOVE 4 23 Mar 16:31:25 16:33:46 14° 59° (ENE) 16:36:12 437.250
CUBESAT XI-V 23 Mar 16:43:54 16:47:43 25° 94° (E) 16:51:32 437.345
RS-15 23 Mar 16:44:11 16:54:47 32° 337° (NNW) 17:05:32 29.354- 29.394
BEESAT 23 Mar 16:50:30 16:54:19 24° 295° (WNW) 16:58:07 436.000
XW-2D 23 Mar 16:54:33 16:56:26 13° 64° (ENE) 16:58:20 145.860 - 145.880
STARS 23 Mar 16:55:10 16:58:15 18° 93° (E) 17:01:20 437.465
SO-50 23 Mar 16:55:18 16:59:32 34° 313° (NW) 17:03:44 436.795
CUTE-I 23 Mar 16:58:32 17:02:34 22° 62° (ENE) 17:06:35 437.470
XW-2B 23 Mar 17:00:02 17:02:15 15° 65° (ENE) 17:04:27 145.730 - 145.750
ITUPSAT 1 23 Mar 17:04:43 17:08:02 19° 297° (WNW) 17:11:21 437.325
NUDT-PHONESAT 23 Mar 17:06:37 17:08:39 14° 65° (ENE) 17:10:42 437.300
KAITUO 1B 23 Mar 17:09:11 17:11:26 15° 66° (ENE) 17:13:39 145.475/437.950
XW-2C 23 Mar 17:09:26 17:12:11 19° 67° (ENE) 17:14:56 145.795 - 145.815
PCSat 23 Mar 17:32:49 17:35:08 13° 33° (NNE) 17:37:28 145.827
MOZHAYETS 4 23 Mar 17:39:05 17:42:06 18° 297° (WNW) 17:45:07
KKS-1 23 Mar 17:44:28 17:48:54 60° 287° (WNW) 17:53:18 437.445
YUBILEINY 23 Mar 17:55:13 18:02:20 27° 65° (ENE) 18:09:22 435.215
LilacSat-2 23 Mar 17:57:42 18:01:32 75° 75° (ENE) 18:05:22 437.200
HO-68 23 Mar 18:00:12 18:05:55 27° 58° (ENE) 18:11:38 435.675
O/OREOS (USA 219) 23 Mar 18:02:33 18:07:04 76° 295° (WNW) 18:11:39 437.305
XW-2F 23 Mar 18:02:40 18:06:28 79° 78° (ENE) 18:10:16 145.980 - 146.000
DOVE 4 23 Mar 18:06:09 18:10:43 75° 258° (WSW) 18:15:38 437.250
XW-2A 23 Mar 18:13:21 18:15:13 14° 66° (ENE) 18:17:04 145.665 - 145.685
CUBESAT XI-V 23 Mar 18:20:56 18:25:08 35° 291° (WNW) 18:29:21 437.345
M-CUBED/EXP-1 PRIME 23 Mar 18:25:52 18:29:41 25° 100° (E) 18:33:30 437.505
XW-2D 23 Mar 18:26:32 18:30:14 48° 260° (W) 18:33:56 145.860 - 145.880
CUBEBUG 2 23 Mar 18:29:28 18:31:19 12° 60° (ENE) 18:33:10 437.445
STARS 23 Mar 18:30:35 18:34:48 43° 290° (WNW) 18:38:59 437.465
XW-2B 23 Mar 18:32:28 18:36:06 42° 261° (W) 18:39:44 145.730 - 145.750
CUTE-I 23 Mar 18:36:56 18:42:12 55° 260° (W) 18:47:30 437.470
NUDT-PHONESAT 23 Mar 18:38:39 18:42:14 43° 261° (W) 18:45:50 437.300
KAITUO 1B 23 Mar 18:41:35 18:45:08 39° 262° (W) 18:48:41 145.475/437.950
XW-2C 23 Mar 18:42:44 18:46:10 31° 263° (W) 18:49:37 145.795 - 145.815
RS-15 23 Mar 19:02:23 19:12:31 28° 12° (NNE) 19:22:29 29.354- 29.394
PCSat 23 Mar 19:14:26 19:19:48 55° 55° (NE) 19:25:06 145.827
AAUSAT CUBESAT 2 23 Mar 19:15:33 19:18:36 21° 67° (ENE) 19:21:41 437.432
SEEDS 23 Mar 19:19:50 19:23:49 46° 73° (ENE) 19:27:49 437.485
CUTE 1.7 + AOD 2 23 Mar 19:19:56 19:24:08 72° 75° (ENE) 19:28:20 437.475
AO-73 23 Mar 19:21:54 19:24:04 13° 62° (ENE) 19:26:14 145.935
STRAND 1 23 Mar 19:27:18 19:31:43 29° 95° (E) 19:36:07 437.568
UWE-3 23 Mar 19:36:40 19:40:51 33° 69° (ENE) 19:45:01 435.000/436.395/437.385
XW-2A 23 Mar 19:44:27 19:47:40 36° 262° (W) 19:50:54 145.665 - 145.685
O/OREOS (USA 219) 23 Mar 19:46:25 19:47:19 10° 314° (NW) 19:48:13 437.305
